(°C)
(°C)
ZZO
ZO
ZO
ZO
ZZO
ZZO
ZO
(km/u)
7-20
7-19
9-26
11-27
12-28
12-31
11-32
(mm)
0
0
0
0
0
0
0
(%)
2
8
2
2
2
15
21

Zonverhoging

/ -13.1°
sun-icon
UV 4
03:12
20:07
Afnemende maan (315°)
02:11
15:18

METAR voor 55.61°N 49.28°O (UWKD)

Tijd Voorwaarden Temperatuur/
Dauwpunt
Wind Zicht Weer Wolken Luchtdruk Wijzigen Ruw
VFR 9°C / 3°C 150º 8kt >10km - Clouds and Visibility OK 1008 No Significant change UWKD 262000Z 15004MPS CAVOK 09/03 Q1008 R11/70D NOSIG RMK QFE746/0995
VFR 8°C / 2°C 140º 8kt >10km - Clouds and Visibility OK 1008 No Significant change UWKD 261930Z 14004MPS CAVOK 08/02 Q1008 R11/70D NOSIG RMK QFE746/0995
VFR 7°C / 3°C 140º 8kt >10km - Clouds and Visibility OK 1008 No Significant change UWKD 261900Z 14004MPS CAVOK 07/03 Q1008 R11/70D NOSIG RMK QFE746/0995
VFR 7°C / 2°C 140º 8kt >10km - Clouds and Visibility OK 1009 No Significant change UWKD 261830Z 14004MPS CAVOK 07/02 Q1009 R29/CLRD70 NOSIG RMK QFE745/0994
VFR 10°C / 2°C 160º 8kt >10km - Clouds and Visibility OK 1009 No Significant change UWKD 261800Z 16004MPS CAVOK 10/02 Q1009 R29/70D NOSIG RMK QFE746/0994
VFR 9°C / 2°C 170º 8kt >10km - Clouds and Visibility OK 1009 No Significant change UWKD 261730Z 17004MPS CAVOK 09/02 Q1009 R29/CLRD70 NOSIG RMK QFE746/0995
VFR 10°C / 3°C 170º 6kt >10km - Clouds and Visibility OK 1009 No Significant change UWKD 261700Z 17003MPS CAVOK 10/03 Q1009 R29/CLRD70 NOSIG RMK QFE746/0995
VFR 12°C / 3°C 190º 6kt >10km - Clouds and Visibility OK 1009 No Significant change UWKD 261630Z 19003MPS CAVOK 12/03 Q1009 R29/70D NOSIG RMK QFE746/0995
VFR 13°C / 0°C 210º 6kt >10km - Clouds and Visibility OK 1010 No Significant change UWKD 261600Z 21003MPS CAVOK 13/00 Q1010 R29/70D NOSIG RMK QFE746/0995
VFR 13°C / 2°C 200º 8kt >10km - Clouds and Visibility OK 1010 No Significant change UWKD 261530Z 20004MPS CAVOK 13/02 Q1010 R29/CLRD70 NOSIG RMK QFE746/0995
VFR 13°C / 0°C 220º 6kt >10km - Clouds and Visibility OK 1010 No Significant change UWKD 261500Z 22003MPS CAVOK 13/00 Q1010 R29/CLRD70 NOSIG RMK QFE746/0995
VFR 14°C / -1°C 220º variable 190º to 250º 10kt >10km - Clouds and Visibility OK 1010 No Significant change UWKD 261430Z 22005MPS 190V250 CAVOK 14/M01 Q1010 R29/CLRD70 NOSIG RMK QFE746/0995
VFR 14°C / 0°C 230º variable 200º to 260º 10kt >10km - Clouds and Visibility OK 1010 No Significant change UWKD 261400Z 23005MPS 200V260 CAVOK 14/M00 Q1010 R29/CLRD70 NOSIG RMK QFE747/0996
VFR 14°C / -1°C 220º variable 200º to 260º 6kt >10km - Clouds and Visibility OK 1010 No Significant change UWKD 261330Z 22003MPS 200V260 CAVOK 14/M01 Q1010 R29/CLRD70 NOSIG RMK QFE747/0996
VFR 14°C / 0°C 220º variable 190º to 250º 8kt >10km - Clouds and Visibility OK 1011 No Significant change UWKD 261300Z 22004MPS 190V250 CAVOK 14/M00 Q1011 R29/CLRD70 NOSIG RMK QFE747/0996
VFR 14°C / -1°C 220º variable 190º to 250º 10kt >10km - Clouds and Visibility OK 1011 No Significant change UWKD 261230Z 22005MPS 190V250 CAVOK 14/M01 Q1011 R29/70D NOSIG RMK QFE747/0996
VFR 14°C / -1°C 240º 10kt >10km - Clouds and Visibility OK 1011 No Significant change UWKD 261200Z 24005MPS CAVOK 14/M01 Q1011 R29/CLRD70 NOSIG RMK QFE747/0996
VFR 14°C / -1°C 220º 8kt >10km - Clouds and Visibility OK 1011 No Significant change UWKD 261130Z 22004MPS CAVOK 14/M01 Q1011 R29/CLRD70 NOSIG RMK QFE747/0996
VFR 14°C / 0°C 230º 10kt >10km - Clouds and Visibility OK 1011 No Significant change UWKD 261100Z 23005MPS CAVOK 14/M00 Q1011 R29/70D NOSIG RMK QFE747/0996
VFR 14°C / 0°C 230º 10kt >10km - Clouds and Visibility OK 1011 No Significant change UWKD 261030Z 23005MPS CAVOK 14/M00 Q1011 R29/CLRD70 NOSIG RMK QFE747/0996
VFR 13°C / -1°C 230º variable 200º to 260º 8kt >10km - Clouds and Visibility OK 1011 No Significant change UWKD 261000Z 23004MPS 200V260 CAVOK 13/M01 Q1011 R29/70D NOSIG RMK QFE747/0996
VFR 14°C / 1°C 230º variable 180º to 250º 10kt >10km - Clouds and Visibility OK 1011 No Significant change UWKD 260930Z 23005MPS 180V250 CAVOK 14/01 Q1011 R29/CLRD70 NOSIG RMK QFE747/0996
VFR 14°C / 0°C 230º variable 180º to 260º 10kt >10km - Clouds and Visibility OK 1011 No Significant change UWKD 260900Z 23005MPS 180V260 CAVOK 14/00 Q1011 R29/70D NOSIG RMK QFE747/0996
VFR 12°C / -1°C 230º 12kt >10km - Clouds and Visibility OK 1011 No Significant change UWKD 260830Z 23006MPS CAVOK 12/M01 Q1011 R29/70D NOSIG RMK QFE747/0996

VFR

9°C / 3°C

[Meer]
Wind 150º 8kt
Zicht >10km
Weer -
Wolken Clouds and Visibility OK
Luchtdruk 1008
Wijzigen No Significant change
Ruw UWKD 262000Z 15004MPS CAVOK 09/03 Q1008 R11/70D NOSIG RMK QFE746/0995

VFR

8°C / 2°C

[Meer]
Wind 140º 8kt
Zicht >10km
Weer -
Wolken Clouds and Visibility OK
Luchtdruk 1008
Wijzigen No Significant change
Ruw UWKD 261930Z 14004MPS CAVOK 08/02 Q1008 R11/70D NOSIG RMK QFE746/0995

VFR

7°C / 3°C

[Meer]
Wind 140º 8kt
Zicht >10km
Weer -
Wolken Clouds and Visibility OK
Luchtdruk 1008
Wijzigen No Significant change
Ruw UWKD 261900Z 14004MPS CAVOK 07/03 Q1008 R11/70D NOSIG RMK QFE746/0995

VFR

7°C / 2°C

[Meer]
Wind 140º 8kt
Zicht >10km
Weer -
Wolken Clouds and Visibility OK
Luchtdruk 1009
Wijzigen No Significant change
Ruw UWKD 261830Z 14004MPS CAVOK 07/02 Q1009 R29/CLRD70 NOSIG RMK QFE745/0994

VFR

10°C / 2°C

[Meer]
Wind 160º 8kt
Zicht >10km
Weer -
Wolken Clouds and Visibility OK
Luchtdruk 1009
Wijzigen No Significant change
Ruw UWKD 261800Z 16004MPS CAVOK 10/02 Q1009 R29/70D NOSIG RMK QFE746/0994

VFR

9°C / 2°C

[Meer]
Wind 170º 8kt
Zicht >10km
Weer -
Wolken Clouds and Visibility OK
Luchtdruk 1009
Wijzigen No Significant change
Ruw UWKD 261730Z 17004MPS CAVOK 09/02 Q1009 R29/CLRD70 NOSIG RMK QFE746/0995

VFR

10°C / 3°C

[Meer]
Wind 170º 6kt
Zicht >10km
Weer -
Wolken Clouds and Visibility OK
Luchtdruk 1009
Wijzigen No Significant change
Ruw UWKD 261700Z 17003MPS CAVOK 10/03 Q1009 R29/CLRD70 NOSIG RMK QFE746/0995

VFR

12°C / 3°C

[Meer]
Wind 190º 6kt
Zicht >10km
Weer -
Wolken Clouds and Visibility OK
Luchtdruk 1009
Wijzigen No Significant change
Ruw UWKD 261630Z 19003MPS CAVOK 12/03 Q1009 R29/70D NOSIG RMK QFE746/0995

VFR

13°C / 0°C

[Meer]
Wind 210º 6kt
Zicht >10km
Weer -
Wolken Clouds and Visibility OK
Luchtdruk 1010
Wijzigen No Significant change
Ruw UWKD 261600Z 21003MPS CAVOK 13/00 Q1010 R29/70D NOSIG RMK QFE746/0995

VFR

13°C / 2°C

[Meer]
Wind 200º 8kt
Zicht >10km
Weer -
Wolken Clouds and Visibility OK
Luchtdruk 1010
Wijzigen No Significant change
Ruw UWKD 261530Z 20004MPS CAVOK 13/02 Q1010 R29/CLRD70 NOSIG RMK QFE746/0995

VFR

13°C / 0°C

[Meer]
Wind 220º 6kt
Zicht >10km
Weer -
Wolken Clouds and Visibility OK
Luchtdruk 1010
Wijzigen No Significant change
Ruw UWKD 261500Z 22003MPS CAVOK 13/00 Q1010 R29/CLRD70 NOSIG RMK QFE746/0995

VFR

14°C / -1°C

[Meer]
Wind 220º variable 190º to 250º 10kt
Zicht >10km
Weer -
Wolken Clouds and Visibility OK
Luchtdruk 1010
Wijzigen No Significant change
Ruw UWKD 261430Z 22005MPS 190V250 CAVOK 14/M01 Q1010 R29/CLRD70 NOSIG RMK QFE746/0995

VFR

14°C / 0°C

[Meer]
Wind 230º variable 200º to 260º 10kt
Zicht >10km
Weer -
Wolken Clouds and Visibility OK
Luchtdruk 1010
Wijzigen No Significant change
Ruw UWKD 261400Z 23005MPS 200V260 CAVOK 14/M00 Q1010 R29/CLRD70 NOSIG RMK QFE747/0996

VFR

14°C / -1°C

[Meer]
Wind 220º variable 200º to 260º 6kt
Zicht >10km
Weer -
Wolken Clouds and Visibility OK
Luchtdruk 1010
Wijzigen No Significant change
Ruw UWKD 261330Z 22003MPS 200V260 CAVOK 14/M01 Q1010 R29/CLRD70 NOSIG RMK QFE747/0996

VFR

14°C / 0°C

[Meer]
Wind 220º variable 190º to 250º 8kt
Zicht >10km
Weer -
Wolken Clouds and Visibility OK
Luchtdruk 1011
Wijzigen No Significant change
Ruw UWKD 261300Z 22004MPS 190V250 CAVOK 14/M00 Q1011 R29/CLRD70 NOSIG RMK QFE747/0996

VFR

14°C / -1°C

[Meer]
Wind 220º variable 190º to 250º 10kt
Zicht >10km
Weer -
Wolken Clouds and Visibility OK
Luchtdruk 1011
Wijzigen No Significant change
Ruw UWKD 261230Z 22005MPS 190V250 CAVOK 14/M01 Q1011 R29/70D NOSIG RMK QFE747/0996

VFR

14°C / -1°C

[Meer]
Wind 240º 10kt
Zicht >10km
Weer -
Wolken Clouds and Visibility OK
Luchtdruk 1011
Wijzigen No Significant change
Ruw UWKD 261200Z 24005MPS CAVOK 14/M01 Q1011 R29/CLRD70 NOSIG RMK QFE747/0996

VFR

14°C / -1°C

[Meer]
Wind 220º 8kt
Zicht >10km
Weer -
Wolken Clouds and Visibility OK
Luchtdruk 1011
Wijzigen No Significant change
Ruw UWKD 261130Z 22004MPS CAVOK 14/M01 Q1011 R29/CLRD70 NOSIG RMK QFE747/0996

VFR

14°C / 0°C

[Meer]
Wind 230º 10kt
Zicht >10km
Weer -
Wolken Clouds and Visibility OK
Luchtdruk 1011
Wijzigen No Significant change
Ruw UWKD 261100Z 23005MPS CAVOK 14/M00 Q1011 R29/70D NOSIG RMK QFE747/0996

VFR

14°C / 0°C

[Meer]
Wind 230º 10kt
Zicht >10km
Weer -
Wolken Clouds and Visibility OK
Luchtdruk 1011
Wijzigen No Significant change
Ruw UWKD 261030Z 23005MPS CAVOK 14/M00 Q1011 R29/CLRD70 NOSIG RMK QFE747/0996

VFR

13°C / -1°C

[Meer]
Wind 230º variable 200º to 260º 8kt
Zicht >10km
Weer -
Wolken Clouds and Visibility OK
Luchtdruk 1011
Wijzigen No Significant change
Ruw UWKD 261000Z 23004MPS 200V260 CAVOK 13/M01 Q1011 R29/70D NOSIG RMK QFE747/0996

VFR

14°C / 1°C

[Meer]
Wind 230º variable 180º to 250º 10kt
Zicht >10km
Weer -
Wolken Clouds and Visibility OK
Luchtdruk 1011
Wijzigen No Significant change
Ruw UWKD 260930Z 23005MPS 180V250 CAVOK 14/01 Q1011 R29/CLRD70 NOSIG RMK QFE747/0996

VFR

14°C / 0°C

[Meer]
Wind 230º variable 180º to 260º 10kt
Zicht >10km
Weer -
Wolken Clouds and Visibility OK
Luchtdruk 1011
Wijzigen No Significant change
Ruw UWKD 260900Z 23005MPS 180V260 CAVOK 14/00 Q1011 R29/70D NOSIG RMK QFE747/0996

VFR

12°C / -1°C

[Meer]
Wind 230º 12kt
Zicht >10km
Weer -
Wolken Clouds and Visibility OK
Luchtdruk 1011
Wijzigen No Significant change
Ruw UWKD 260830Z 23006MPS CAVOK 12/M01 Q1011 R29/70D NOSIG RMK QFE747/0996

TAF voor 55.61°N 49.28°O (UWKD)

From till


Maximum Temperature 14ºC on . Minimum Temperature 9ºC on .
From till Wind 180º 6kt. Visibility 10km or more. Scattered Clouds 2000ft.
Becoming from till Wind 150º 16kt. Gust 29kt. Visibility 10km or more. Broken Clouds 1600ft.
Temporarly from till Visibility 3100m. Light Showers Rain . Broken Clouds 1100ft. Broken Clouds 2000ft.

Ruw: TAF UWKD 261652Z 2618/2718 18003MPS 9999 SCT020 TX14/2712Z TN09/2701Z BECMG 2703/2704 15008G15MPS BKN016 TEMPO 2704/2716 3100 -SHRA BKN011 BKN020CB

Radar en neerslag nowcast voor 55.61°N 49.28°O

Motregen
Licht
Matig
Zwaar
Zeer zwaar
Hagel

De locatiemarkering is op 55.61°N 49.28°O geplaatst . Deze animation toont de neerslag radar van het afgelopen uur, maar ook de 1h verwachting. Motregen of lichte sneeuwval kan onzichtbaar zijn voor de radar. De neerslagintensiteit wordt met kleuren weergegeven, van lichtblauw tot oranje.

Huidige satelliet- en regenbeelden voor 55.61°N 49.28°O

De locatiemarkering is op 55.61°N 49.28°O geplaatst. [Meer]

Het realtime satellietbeeld combineert zichtbaar licht overdag met infraroodstraling 's nachts. 's Nachts is het beeld niet donker, omdat infraroodstraling temperatuurverschillen kan waarnemen. Helaas zijn lage wolken en mist moeilijk te onderscheiden van grondtemperaturen en kunnen dus 's nachts bijna onzichtbaar zijn. Meteosat-satellietbeelden voor Europa worden elke 5 minuten in real time bijgewerkt. De beelden van GOES-16/GOES-17 (Noord- en Zuid-Amerika) en Himawari (Azië) worden om de 10 minuten bijgewerkt.

Copyright 2022 EUMETSAT / meteoblue. / Copyright 2022 meteoblue

Terug naar boven